Hourly Data Report for November 05, 2017

All times are specified in Local Standard Time (LST). Add 1 hour to adjust for Daylight Saving Time where and when it is observed.

BATHURST A
NEW BRUNSWICK

47°37'47.000" N
65°44'20.000" W
58.80 m
8100505
71574
ZBF

Download Data

Hourly Data (November 2017)
Hourly Data Report for November 5, 2017
Temp Definition
°C
Dew Point Temp Definition
°C
Rel Hum Definition
%
Wind Dir Definition
10's deg

Wind Spd Definition
km/h
Visibility Definition
km
Stn Press Definition
kPa
Hmdx Definition


Wind Chill Definition


Weather Definition


TIME
00:00 -2.2 -8.4 63 28 8 24.1 102.54   -5 LegendNANA
01:00 -2.8 -8.3 66 27 9 24.1 102.59   -6 LegendNANA
02:00 -2.7 -8.5 64 30 8 24.1 102.63   -6 Mostly Cloudy
03:00 -3.0 -8.3 67 28 7 24.1 102.65   -6 LegendNANA
04:00 -3.5 -7.9 72 31 8 24.1 102.67   -7 LegendNANA
05:00 -5.5 -7.9 83 24 5 24.1 102.72   -8 Clear
06:00 -6.2 -7.8 89 17 6 24.1 102.80   -9 LegendNANA
07:00 -6.8 -8.0 91 18 4 24.1 102.80   -9 LegendNANA
08:00 -6.0 -7.5 90   0 24.1 102.82     Cloudy
09:00 -4.0 -6.6 83 18 3 24.1 102.78   -5 LegendNANA
10:00 -0.3 -7.2 60 15 6 24.1 102.74   -2 LegendNANA
11:00 1.4 -7.7 51 17 9 24.1 102.72     Cloudy
12:00 2.6 -6.8 50 20 14 24.1 102.66     LegendNANA
13:00 3.7 -5.5 51 15 14 24.1 102.44     LegendNANA
14:00 3.7 -5.7 50 16 16 24.1 102.35     Cloudy
15:00 3.7 -5.2 52 16 12 24.1 102.29     LegendNANA
16:00 3.5 -4.9 54 17 8 24.1 102.22     LegendNANA
17:00 3.2 -4.9 55 16 8 24.1 102.11     Cloudy
18:00 3.1 -4.6 57 15 7 24.1 102.02     LegendNANA
19:00 3.4 -3.8 59 16 9 24.1 101.91     LegendNANA
20:00 3.8 -3.4 59 16 9 24.1 101.74     Cloudy
21:00 4.2 -2.8 60 17 9 24.1 101.71     LegendNANA
22:00 4.3 -1.4 66 17 11 16.1 101.53     Rain
23:00 4.4 0.1 74 18 12 16.1 101.34     Rain

Notes on Data Quality.

Legend

  • E = Estimated
  • M = Missing
  • NA = Not Available
Date modified: